Bradshaw AFB, HI

9:54 AM HST on November 14, 2019 (GMT -1000)
Bradshaw Army Air Field

Weather History for PHSF - September, 2019

Change the Weather History Date:

Thursday, September 19, 2019

  Actual Average Record
Temperature  
Mean Temperature 60 °F -  
Max Temperature 72 °F 69 °F 73 °F (1996)
Min Temperature 48 °F 49 °F 44 °F (2000)
Degree Days  
Heating Degree Days 5    
Growing Degree Days 10 (Base 50)    
Moisture  
Dew Point 55 °F    
Average Humidity 82    
Maximum Humidity 100    
Minimum Humidity 53    
Precipitation  
Precipitation 0.01 in - - ()
Sea Level Pressure  
Sea Level Pressure 29.94 in    
Wind  
Wind Speed 5 mph (West)    
Max Wind Speed 13 mph    
Max Gust Speed 17 mph    
Visibility 9 miles    
Events Rain    
Averages and records for this station are not official NWS values.
T = Trace of Precipitation, MM = Missing Value Source: NWS Daily Summary

Daily Weather History Graph

Daily Weather History Graph

Search for Another Location

Airport or City:

Astronomy

Sep. 19, 2019 Rise Set
Actual Time 6:10 AM HST 6:21 PM HST
Civil Twilight 5:48 AM HST 6:43 PM HST
Nautical Twilight 5:22 AM HST 7:08 PM HST
Astronomical Twilight 4:57 AM HST 7:34 PM HST
Moon 10:18 PM HST (9/19) 10:46 AM HST (9/19)
Length of Visible Light 12h 54m
Length of Day
12h 10m
Waning Gibbous, 72% of the Moon is Illuminated
Sep 19
Waning Gibbous
Sep 21
Last Quarter
Sep 28
New
Oct 5
First Quarter
Oct 13
Full

Hourly Weather History & Observations

Time (HST) Temp. Dew Point Humidity Pressure Visibility Wind Dir Wind Speed Gust Speed Precip Events Conditions
12:58 AM 53.6 °F 51.3 °F 92% 29.93 in 9.0 mi SE 4.6 mph - N/A   Clear
1:58 AM 54.0 °F 51.8 °F 92% 29.92 in 10.0 mi SE 3.5 mph - N/A   Clear
2:58 AM 50.2 °F 48.6 °F 94% 29.92 in 10.0 mi SE 5.8 mph - N/A   Clear
3:58 AM 50.0 °F 47.5 °F 91% 29.92 in 10.0 mi Calm Calm - N/A   Clear
4:58 AM 50.0 °F 46.4 °F 87% 29.94 in 10.0 mi SE 5.8 mph - N/A   Clear
5:58 AM 48.0 °F 44.6 °F 88% 29.95 in 10.0 mi NE 4.6 mph - N/A   Clear
6:58 AM 52.5 °F 48.9 °F 88% 29.95 in 10.0 mi Calm Calm - N/A   Clear
7:58 AM 61.0 °F 53.8 °F 77% 29.96 in 10.0 mi Calm Calm - N/A   Clear
8:58 AM 65.1 °F 53.6 °F 66% 29.94 in 10.0 mi WNW 3.5 mph - N/A   Clear
9:58 AM 69.3 °F 51.4 °F 53% 29.93 in 10.0 mi Calm Calm - N/A   Clear
10:58 AM 70.5 °F 58.1 °F 65% 29.95 in 10.0 mi NW 9.2 mph - N/A   Clear
11:38 AM 69.8 °F 59.0 °F 68% 29.93 in 10.0 mi NNW 9.2 mph - N/A   Mostly Cloudy
11:48 AM 69.8 °F 59.0 °F 68% 29.93 in 10.0 mi NNW 12.7 mph - N/A   Scattered Clouds
11:58 AM 71.2 °F 58.5 °F 64% 29.92 in 10.0 mi NNW 9.2 mph 17.3 mph N/A   Scattered Clouds
12:58 PM 72.3 °F 57.9 °F 60% 29.90 in 10.0 mi NNW 11.5 mph 16.1 mph N/A   Clear
1:58 PM 71.4 °F 58.6 °F 64% 29.88 in 10.0 mi NW 11.5 mph 16.1 mph N/A   Mostly Cloudy
2:43 PM 71.6 °F 59.0 °F 64% 29.88 in 10.0 mi NW 10.4 mph - N/A   Mostly Cloudy
2:58 PM 70.9 °F 59.0 °F 66% 29.89 in 10.0 mi NW 11.5 mph - N/A   Mostly Cloudy
3:39 PM 69.8 °F 59.0 °F 68% 29.89 in 10.0 mi NW 8.1 mph - N/A   Mostly Cloudy
3:49 PM 68.0 °F 59.0 °F 73% 29.91 in 10.0 mi NNW 10.4 mph - N/A   Mostly Cloudy
4:58 PM 68.4 °F 59.0 °F 72% 29.91 in 10.0 mi NW 6.9 mph - N/A   Overcast
5:18 PM 66.2 °F 59.0 °F 78% 29.93 in 10.0 mi NNW 10.4 mph - N/A   Overcast
5:58 PM 64.0 °F 58.5 °F 82% 29.95 in 10.0 mi WNW 8.1 mph - N/A   Overcast
6:13 PM 62.6 °F 57.2 °F 82% 29.96 in 10.0 mi NNW 6.9 mph - N/A   Overcast
6:46 PM 60.8 °F 57.2 °F 88% 29.97 in 6.0 mi WNW 3.5 mph - N/A Rain Light Rain
6:58 PM 59.7 °F 58.1 °F 94% 29.96 in 3.0 mi Calm Calm - 0.00 in Rain Light Rain
7:12 PM 59.0 °F 59.0 °F 100% 29.97 in 4.0 mi Calm Calm - N/A   Overcast
7:32 PM 59.0 °F 57.2 °F 94% 29.96 in 9.0 mi South 4.6 mph - N/A   Overcast
7:37 PM 59.0 °F 57.2 °F 94% 29.96 in 10.0 mi South 5.8 mph - N/A   Overcast
7:42 PM 59.0 °F 57.2 °F 94% 29.96 in 8.0 mi SSE 4.6 mph - N/A   Overcast
7:57 PM 59.0 °F 57.2 °F 94% 29.96 in 8.0 mi Calm Calm - N/A   Overcast
7:58 PM 59.0 °F 57.2 °F 94% 29.96 in 8.0 mi Calm Calm - 0.01 in   Overcast
8:03 PM 59.0 °F 57.2 °F 94% 29.94 in 9.0 mi South 6.9 mph - N/A   Overcast
8:13 PM 59.0 °F 57.2 °F 94% 29.96 in 10.0 mi South 6.9 mph - N/A   Overcast
8:43 PM 57.2 °F 55.4 °F 94% 29.96 in 10.0 mi South 9.2 mph - N/A   Scattered Clouds
8:58 PM 56.7 °F 54.7 °F 93% 29.95 in 10.0 mi SSE 6.9 mph - N/A   Partly Cloudy
9:58 PM 55.8 °F 53.4 °F 92% 29.95 in 10.0 mi SSE 9.2 mph - N/A   Clear
10:58 PM 55.8 °F 54.0 °F 94% 29.94 in 10.0 mi SE 5.8 mph - N/A   Clear
11:58 PM 54.3 °F 52.7 °F 94% 29.93 in 9.0 mi SSE 6.9 mph - N/A   Clear